Location: �perlecques
(50.8057°N, 2.1521°E)
Time: 18:20:33
(UTC+00:00)

ASTEX 1 - Pass Details

Date: 09 April 2020
Orbit: 721 x 743 km, 92.7° (Epoch: 02 June)

Event Time Altitude Azimuth Distance (km) Brightness Sun altitude
Exits shadow 21:49:59 70° 73° (ENE) 787 3.4 -25.5°
Drops below altitude 10° 21:54:52 10° 358° (N) 2,250 6.7 -25.9°
Sets 21:57:10 0° 356° (N) 3,173 7.6 -26.1°
